Tracking 19634 objects as of 21-May-2019
HD Live streaming from Space Station
objects crossing your sky now

SUPERBIRD 4

Track SUPERBIRD 4 now!
SUPERBIRD 4 is classified as:


NORAD ID: 26095
Int'l Code: 2000-012A
Perigee: 36,149.0 km
Apogee: 36,243.3 km
Inclination: 1.9 °
Period: 1,456.7 minutes
Semi major axis: 42567 km
RCS: 25.1189 m2 (large)
Launch date: February 18, 2000
Source: Japan (JPN)
Launch site: FRENCH GUIANA (FRGUI)

23 Ku-band, 6 Ka-band; Japan, Okinawa; business communications.
aabbcc
Your satellite tracking list
Your tracking list is empty




NASA's NSSDC Master Catalog

Two Line Element Set (TLE):
1 26095U 00012A   19140.55232725 -.00000233  00000-0  00000+0 0  9999
2 26095   1.9412  89.0985 0011072  68.7864  87.9682  0.98853350 70468
Source of the keplerian elements: AFSPC